KA1WBH Weather Reports


Display with metric or nautical units.
time (UTC)temp
F
wind
direction
speed
MPH
gust
MPH
rain 1hr
in
rain 24hr
in
rain mn
in
humidity
%
barometer
mb
20211019091838 48 347 3.0 15.0 0.00 0.00 0.00 80 1011.0
20211019090838 48 289 0.0 15.0 0.00 0.00 0.00 80 1010.9
20211019085841 48 306 2.0 18.0 0.00 0.00 0.00 80 1010.8
20211019084838 48 269 6.0 15.0 0.00 0.00 0.00 80 1010.8
20211019083838 48 295 2.0 17.0 0.00 0.00 0.00 80 1010.8
20211019082838 48 354 5.0 14.0 0.00 0.00 0.00 80 1010.8
20211019081838 48 301 7.0 17.0 0.00 0.00 0.00 80 1010.6
20211019080838 48 308 6.0 18.0 0.00 0.00 0.00 80 1010.6
20211019075838 48 338 2.0 15.0 0.00 0.00 0.00 81 1010.5
20211019074838 48 272 0.0 17.0 0.00 0.00 0.00 82 1010.6
20211019073838 48 295 7.0 15.0 0.00 0.00 0.00 81 1010.4
20211019072838 48 329 4.0 13.0 0.00 0.00 0.00 81 1010.2
20211019071838 48 327 7.0 14.0 0.00 0.00 0.00 81 1010.2
20211019070838 48 330 2.0 12.0 0.00 0.00 0.00 80 1010.1
20211019065847 48 300 10.0 15.0 0.00 0.00 0.00 80 1010.2
20211019064838 48 319 3.0 18.0 0.00 0.00 0.00 81 1010.4
20211019063838 48 307 6.0 16.0 0.00 0.00 0.00 81 1010.5
20211019062838 48 331 7.0 15.0 0.00 0.00 0.00 81 1010.4
20211019061838 48 337 10.0 18.0 0.00 0.00 0.00 80 1010.5
20211019060838 48 324 7.0 13.0 0.00 0.00 0.00 80 1010.5
20211019055838 48 322 3.0 19.0 0.00 0.00 0.00 80 1010.4
20211019054838 49 287 1.0 18.0 0.00 0.00 0.00 81 1010.4
20211019053838 49 331 0.0 15.0 0.00 0.00 0.00 81 1010.4
20211019052838 49 308 9.0 15.0 0.00 0.00 0.00 81 1010.4
20211019051838 49 301 2.0 16.0 0.00 0.00 0.00 80 1010.3
20211019050838 49 300 10.0 18.0 0.00 0.00 0.00 79 1010.3
20211019045838 49 303 5.0 16.0 0.00 0.00 0.00 79 1010.3
20211019044838 49 316 3.0 20.0 0.00 0.00 0.00 79 1010.1
20211019043838 49 331 0.0 18.0 0.00 0.00 0.00 78 1010.2
20211019042838 50 316 4.0 18.0 0.00 0.00 0.00 77 1010.0
20211019041838 50 297 3.0 15.0 0.00 0.00 0.00 78 1009.9
20211019040838 50 337 10.0 17.0 0.00 0.00 0.00 79 1009.9
20211019035838 50 298 5.0 17.0 0.00 0.00 0.00 79 1009.9
20211019034838 50 305 5.0 18.0 0.00 0.00 0.00 78 1009.9
20211019033838 50 352 3.0 22.0 0.00 0.00 0.00 78 1009.8
20211019032838 50 272 5.0 14.0 0.00 0.00 0.00 77 1009.7
20211019031838 51 275 6.0 19.0 0.00 0.00 0.00 76 1009.6
20211019030838 51 297 3.0 15.0 0.00 0.00 0.00 76 1009.8
20211019025838 51 308 3.0 18.0 0.00 0.00 0.00 76 1009.8
20211019024838 51 261 0.0 22.0 0.00 0.00 0.00 76 1009.9
20211019023837 51 299 11.0 18.0 0.00 0.00 0.00 76 1009.7
20211019022838 52 274 3.0 16.0 0.00 0.00 0.00 75 1009.7
20211019021838 52 312 4.0 18.0 0.00 0.00 0.00 74 1009.7
20211019020838 52 277 10.0 18.0 0.00 0.00 0.00 74 1009.6
20211019015838 52 341 5.0 22.0 0.00 0.00 0.00 73 1009.5
20211019014838 53 316 3.0 15.0 0.00 0.00 0.00 73 1009.5
20211019013838 53 316 4.0 14.0 0.00 0.00 0.00 73 1009.5
20211019012838 53 291 8.0 17.0 0.00 0.00 0.00 72 1009.4
20211019011837 53 342 4.0 15.0 0.00 0.00 0.00 71 1009.3
20211019010838 53 358 0.0 16.0 0.00 0.00 0.00 68 1009.2
20211019005837 54 2 9.0 21.0 0.00 0.00 0.00 67 1009.0
20211019004838 54 327 14.0 19.0 0.00 0.00 0.00 66 1008.8
20211019003837 54 295 11.0 15.0 0.00 0.00 0.00 68 1008.8
20211019002838 55 318 5.0 16.0 0.00 0.00 0.00 70 1008.7
20211019001838 55 320 3.0 17.0 0.00 0.00 0.00 71 1008.6
20211019000838 55 285 2.0 12.0 0.00 0.00 0.00 71 1008.5
20211018235838 56 347 5.0 14.0 0.00 0.00 0.00 69 1008.2
20211018234837 56 330 14.0 17.0 0.00 0.00 0.00 68 1008.1
20211018233838 56 307 5.0 16.0 0.00 0.00 0.00 68 1008.0
20211018232837 56 308 0.0 16.0 0.00 0.00 0.00 67 1007.8
20211018231837 57 321 4.0 19.0 0.00 0.00 0.00 65 1007.7
20211018230837 57 270 4.0 16.0 0.00 0.00 0.00 64 1007.5
20211018225837 57 31 2.0 18.0 0.00 0.00 0.00 65 1007.5
20211018224838 57 324 0.0 17.0 0.00 0.00 0.00 63 1007.4
20211018223837 57 304 1.0 19.0 0.00 0.00 0.00 63 1007.2
20211018222837 57 319 5.0 18.0 0.00 0.00 0.00 62 1007.0
20211018221837 57 339 10.0 25.0 0.00 0.00 0.00 61 1007.0
20211018220837 58 318 7.0 16.0 0.00 0.00 0.00 62 1006.9
20211018215838 58 334 5.0 13.0 0.00 0.00 0.00 61 1006.7
20211018214837 58 329 7.0 17.0 0.00 0.00 0.00 59 1006.6
20211018213838 59 287 3.0 21.0 0.00 0.00 0.00 59 1006.5
20211018212837 59 312 9.0 17.0 0.00 0.00 0.00 60 1006.4
20211018211837 59 284 0.0 15.0 0.00 0.00 0.00 59 1006.3
20211018210837 60 302 5.0 13.0 0.00 0.00 0.00 59 1006.1
20211018205837 60 291 2.0 12.0 0.00 0.00 0.00 57 1006.1
20211018204837 60 327 0.0 12.0 0.00 0.00 0.00 57 1005.9
20211018203837 60 312 1.0 13.0 0.00 0.00 0.00 55 1005.9
20211018202837 60 308 6.0 14.0 0.00 0.00 0.00 57 1005.8
20211018201837 60 317 9.0 11.0 0.00 0.00 0.00 57 1005.8
20211018200837 60 324 5.0 12.0 0.00 0.00 0.00 54 1005.7
20211018195837 61 327 7.0 14.0 0.00 0.00 0.00 53 1005.6
20211018194837 61 293 3.0 15.0 0.00 0.00 0.00 53 1005.6
20211018193837 61 281 2.0 13.0 0.00 0.00 0.00 54 1005.7
20211018192837 61 266 0.0 21.0 0.00 0.00 0.00 52 1005.8
20211018191843 61 356 6.0 16.0 0.00 0.00 0.00 52 1005.6
20211018190837 62 316 10.0 16.0 0.00 0.00 0.00 52 1005.6
20211018185837 62 331 3.0 13.0 0.00 0.00 0.00 52 1005.7
20211018184837 62 306 9.0 12.0 0.00 0.00 0.00 54 1005.5
20211018183837 61 329 12.0 15.0 0.00 0.00 0.00 54 1005.5
20211018182837 60 355 8.0 15.0 0.00 0.00 0.00 56 1005.4
20211018181837 61 316 11.0 14.0 0.00 0.00 0.00 52 1005.4
20211018180837 61 275 3.0 13.0 0.00 0.00 0.00 55 1005.4
20211018175837 62 337 13.0 14.0 0.00 0.00 0.00 51 1005.5
20211018174837 62 288 9.0 13.0 0.00 0.00 0.00 54 1005.5
20211018173837 61 335 0.0 15.0 0.00 0.00 0.00 55 1005.6
20211018172837 60 294 1.0 12.0 0.00 0.00 0.00 59 1005.7
20211018171837 60 272 4.0 17.0 0.00 0.00 0.00 58 1005.9
20211018170837 60 356 12.0 13.0 0.00 0.00 0.00 58 1005.9
20211018165837 61 327 2.0 12.0 0.00 0.00 0.00 59 1005.9
20211018164837 60 247 7.0 12.0 0.00 0.00 0.00 59 1006.1
20211018163837 60 297 4.0 14.0 0.00 0.00 0.00 60 1006.1
20211018162837 59 279 4.0 17.0 0.00 0.00 0.00 59 1006.4
20211018161837 60 318 7.0 13.0 0.00 0.00 0.00 57 1006.4
20211018160837 59 284 4.0 18.0 0.00 0.00 0.00 61 1006.4
20211018155837 59 331 9.0 18.0 0.00 0.00 0.00 59 1006.5
20211018154837 59 302 18.0 18.0 0.00 0.00 0.00 61 1006.4
20211018153837 59 331 7.0 25.0 0.00 0.00 0.00 61 1006.5
20211018152837 58 293 10.0 11.0 0.00 0.00 0.00 64 1006.7
20211018151837 57 329 3.0 14.0 0.00 0.00 0.00 62 1006.8
20211018150837 57 285 12.0 15.0 0.00 0.00 0.00 64 1006.8
20211018145837 57 345 0.0 15.0 0.00 0.00 0.00 63 1006.9
20211018144837 57 283 6.0 17.0 0.00 0.00 0.00 64 1006.9
20211018143837 56 302 6.0 22.0 0.00 0.00 0.00 64 1007.0
20211018142837 56 323 2.0 17.0 0.00 0.00 0.00 65 1006.9
20211018141837 56 330 17.0 19.0 0.00 0.00 0.00 65 1007.0
20211018140837 56 285 9.0 18.0 0.00 0.00 0.00 65 1007.0
20211018135837 56 275 5.0 15.0 0.00 0.00 0.00 67 1007.0
20211018134837 55 302 6.0 16.0 0.00 0.00 0.00 68 1007.2
20211018133837 55 329 3.0 19.0 0.00 0.00 0.00 69 1007.1
20211018132837 55 297 5.0 15.0 0.00 0.00 0.00 69 1007.2
20211018131837 54 304 11.0 18.0 0.00 0.00 0.00 70 1007.2
20211018130837 54 316 6.0 16.0 0.00 0.00 0.00 70 1007.2
20211018125837 54 258 10.0 15.0 0.00 0.00 0.00 72 1007.2
20211018124837 54 290 0.0 16.0 0.00 0.00 0.00 72 1007.2
20211018123837 53 301 3.0 13.0 0.00 0.00 0.00 74 1007.2
20211018122837 53 316 0.0 16.0 0.00 0.00 0.00 75 1007.1
20211018121837 53 298 1.0 16.0 0.00 0.00 0.00 77 1007.1
20211018120837 52 318 11.0 13.0 0.00 0.00 0.00 79 1006.9
20211018115837 52 278 4.0 16.0 0.00 0.00 0.00 80 1006.7
20211018114837 52 299 0.0 14.0 0.00 0.00 0.00 80 1006.8
20211018113837 52 337 1.0 23.0 0.00 0.00 0.00 81 1006.6
20211018112837 52 279 6.0 18.0 0.00 0.00 0.00 82 1006.5
20211018111837 52 352 6.0 15.0 0.00 0.00 0.00 83 1006.5
20211018110837 52 5 7.0 13.0 0.00 0.00 0.00 84 1006.3
20211018105837 53 299 5.0 14.0 0.00 0.00 0.00 83 1006.3
20211018104837 53 308 7.0 14.0 0.00 0.00 0.00 83 1006.1
20211018103837 53 297 9.0 13.0 0.00 0.00 0.00 82 1006.2
20211018102837 53 279 11.0 11.0 0.00 0.00 0.00 82 1006.1
20211018101837 53 345 11.0 14.0 0.00 0.00 0.00 82 1006.2
20211018100837 53 299 9.0 15.0 0.00 0.00 0.00 82 1006.1
20211018095837 54 304 3.0 18.0 0.00 0.00 0.00 82 1006.0
20211018094837 54 335 10.0 15.0 0.00 0.00 0.00 83 1005.9
20211018093837 54 316 6.0 14.0 0.00 0.00 0.00 83 1005.8
20211018092837 54 316 13.0 13.0 0.00 0.00 0.00 82 1005.9